Location: Bas-Clignon
(44.2000°N, 6.6333°E)
Time: 06:32:41
(UTC+00:00)

Cosmos 2219 Rocket - Pass Details

Date: 03 February 2023
Orbit: 826 x 848 km, 71.0° (Epoch: 26 March)

Event Time Altitude Azimuth Distance (km) Brightness Sun altitude
Rises 19:46:45 0° 226° (SW) 3,353 5.8 -32.6°
Reaches altitude 10° 19:49:19 10° 233° (SW) 2,425 5.0 -33.1°
Maximum altitude 19:54:32 40° 303° (WNW) 1,199 3.3 -34.0°
Enters shadow 19:54:48 40° 310° (NW) 1,204 3.2 -34.1°
